SCP
0 0 0 0 0 0 0 0 0 0 0 0 0 0 0 0 0 0 0 0 0 0 0 0 0 0 0 0 0 0 0 0 0 0 0 0 0 0 0 0 0 0 0
0 0 0 0 0 0 0 0 0 0 0 0 0 0 0 0 0 0 0 0 0 0 0 0 0 0 0 0 0 0 0 0 0 0 0 0 0 0 0 0 0 0 0
0 0 0 0 0 0 0 0 0 0 0 0 0 0 0 0 0 0 0 0 0 0 0 0 0 0 0 0 0 0 0 0 0 0 0 0 0 0 0 0 0 0 0
0 0 0 0 0 0 0 0 0 0 0 0 0 0 0 0 0 0 0 0 0 0 0 0 0 0 0 0 0 0 0 0 0 0 0 0 0 0 0 0 0 0 0
0 0 0 0 0 0 0 0 0 0 0 0 0 0 0 0 0 0 0 0 0 0 0 0 0 0 0 0 0 0 0 0 0 0 0 0 0 0 0 0 0 0 0
0 0 0 0 0 0 0 0 0 0 0 0 0 0 0 0 0 0 0 0 0 0 0 0 0 0 0 0 0 0 0 0 0 0 0 0 0 0 0 0 0 0 0
0 0 0 0 0 0 0 0 0 0 0 0 0 0 0 0 0 0 0 0 0 0 0 0 0 0 0 0 0 0 0 0 0 0 0 0 0 0 0 0 0 0 0
0 0 0 0 0 0 0 0 0 0 0 0 0 0 0 0 0 0 0 0 0 0 0 0 0 0 0 0 0 0 0 0 0 0 0 0 0 0 0 0 0 0 0
0 0 0 0 0 0 0 0 0 0 0 0 0 0 0 0 0 0 0 0 0 0 0 0 0 0 0 0 0 0 0 0 0 0 0 0 0 0 0 0 0 0 0
0 0 0 0 0 0 0 0 0 0 0 0 0 0 0 0 0 0 0 0 0 0 0 0 0 0 0 0 0 0 0 0 0 0 0 0 0 0 0 0 0 0 0
0 0 0 0 0 0 0 0 0 0 0 0 0 0 0 0 0 0 0 0 0 0 0 0 0 0 0 0 0 0 0 0 0 0 0 0 0 0 0 0 0 0 0
0 0 0 0 0 0 0 0 0 0 0 0 0 0 0 0 0 0 0 0 0 0 0 0 0 0 0 0 0 0 0 0 0 0 0 0 0 0 0 0 0 0 0
0 0 0 0 0 0 0 0 0 0 0 0 0 0 0 0 0 0 0 0 0 0 0 0 0 0 0 0 0 0 0 0 0 0 0 0 0 0 0 0 0 0 0
0 0 0 0 0 0 0 0 0 0 0 0 0 0 0 0 0 0 0 0 0 0 0 0 0 0 0 0 0 0 0 0 0 0 0 0 0 0 0 0 0 0 0
0 0 0 0 0 0 0 0 0 0 0 0 0 0 0 0 0 0 0 0 0 0 0 0 0 0 0 0 0 0 0 0 0 0 0 0 0 0 0 0 0 0 0
0 0 0 0 0 0 0 0 0 0 0 0 0 0 0 0 0 0 0 0 0 0 0 0 0 0 0 0 0 0 0 0 0 0 0 0 0 0 0 0 0 0 0
0 0 0 0 0 0 0 0 0 0 0 0 0 0 0 0 0 0 0 0 0 0 0 0 0 0 0 0 0 0 0 0 0 0 0 0 0 0 0 0 0 0 0
0 0 0 0 0 0 0 0 0 0 0 0 0 0 0 0 0 0 0 0 0 0 0 0 0 0 0 0 0 0 0 0 0 0 0 0 0 0 0 0 0 0 0
0 0 0 0 0 0 0 0 0 0 0 0 0 0 0 0 0 0 0 0 0 0 0 0 0 0 0 0 0 0 0 0 0 0 0 0 0 0 0 0 0 0 0
0 0 0 0 0 0 0 0 0 0 0 0 0 0 0 0 0 0 0 0 0 0 0 0 0 0 0 0 0 0 0 0 0 0 0 0 0 0 0 0 0 0 0
0 0 0 0 0 0 0 0 0 0 0 0 0 0 0 0 0 0 0 0 0 0 0 0 0 0 0 0 0 0 0 0 0 0 0 0 0 0 0 0 0 0 0
0 0 0 0 0 0 0 0 0 0 0 0 0 0 0 0 0 0 0 0 0 0 0 0 0 0 0 0 0 0 0 0 0 0 0 0 0 0 0 0 0 0 0
0 0 0 0 0 0 0 0 0 0 0 0 0 0 0 0 0 0 0 0 0 0 0 0 0 0 0 0 0 0 0 0 0 0 0 0 0 0 0 0 0 0 0
0 0 0 0 0 0 0 0 0 0 0 0 0 0 0 0 0 0 0 0 0 0 0 0 0 0 0 0 0 0 0 0 0 0 0 0 0 0 0 0 0 0 0
0 0 0 0 0 0 0 0 0 0 0 0 0 0 0 0 0 0 0 0 0 0 0 0 0 0 0 0 0 0 0 0 0 0 0 0 0 0 0 0 0 0 0
0 0 0 0 0 0 0 0 0 0 0 0 0 0 0 0 0 0 0 0 0 0 0 0 0 0 0 0 0 0 0 0 0 0 0 0 0 0 0 0 0 0 0
Wind_Speed_500mb
28 27 26 26 24 21 20 18 15 14 13 10 10 10 10 14 12 13 11 11 17 20 20 20 21 21 19 18 16 13 11 8 8 6 4 10 11 12 15 16 17 19 22
32 31 30 28 27 25 23 22 22 19 17 16 15 14 14 14 14 17 23 15 19 22 23 22 22 21 21 20 17 16 16 10 11 7 4 5 8 14 14 12 13 18 21
35 34 33 31 30 29 28 27 25 24 21 22 21 20 20 20 20 20 20 29 27 24 25 25 23 22 22 22 22 18 18 14 8 11 12 12 11 12 10 9 15 18 18
38 37 37 36 36 35 34 32 29 27 27 24 23 23 26 26 27 27 25 26 30 34 28 26 26 26 25 25 27 24 20 20 18 19 17 16 12 7 5 10 11 14 15
43 41 41 42 40 41 38 35 34 33 28 26 27 30 32 33 32 34 33 29 29 32 33 30 29 30 28 28 29 29 27 27 26 24 21 16 12 8 6 7 7 10 12
47 49 48 46 45 44 43 43 40 38 36 29 36 37 38 40 40 42 40 39 34 30 31 28 25 25 27 30 31 32 33 32 32 27 22 20 15 12 11 11 7 6 7
53 56 56 51 49 50 48 47 43 43 43 42 41 43 43 44 46 49 48 46 40 35 33 30 31 33 32 31 34 35 34 34 38 32 25 20 19 16 14 18 14 10 9
58 58 59 56 56 56 55 52 50 49 50 50 46 41 38 43 50 49 44 43 39 40 42 40 40 39 41 41 40 38 36 34 32 32 27 27 25 22 22 20 17 15 13
68 64 59 61 61 61 61 58 57 57 57 56 54 44 21 19 17 28 27 33 37 40 43 46 44 48 54 52 47 46 44 41 36 35 30 30 30 28 28 26 23 21 18
75 71 68 66 65 66 66 64 63 64 63 63 59 63 62 58 32 34 39 35 43 52 56 56 51 54 60 63 57 56 50 45 42 41 36 34 33 32 32 28 24 25 24
80 81 79 76 74 71 70 70 70 71 73 72 74 65 65 68 68 73 63 50 59 62 61 64 64 68 74 73 68 63 66 58 53 54 49 46 41 34 32 34 30 30 28
81 82 83 86 81 77 75 76 75 75 76 77 76 76 71 61 61 68 75 80 80 80 75 75 77 78 83 83 81 76 75 77 79 67 57 55 54 44 44 39 36 33 33
80 76 78 83 85 83 82 82 81 80 79 80 79 81 84 84 81 70 70 77 80 88 88 83 79 80 80 89 86 82 81 89 80 62 58 62 49 49 49 43 41 38 31
83 75 72 72 76 79 81 83 84 84 83 82 84 85 85 86 85 83 81 79 74 75 86 93 85 74 77 73 83 75 78 84 83 66 66 58 47 55 51 45 43 39 31
89 84 78 70 66 71 75 77 81 80 81 83 84 84 87 87 86 85 85 83 83 69 68 67 61 67 69 62 65 66 68 73 74 65 61 55 49 54 52 46 44 40 34
87 85 81 74 64 59 62 66 68 68 70 72 73 76 78 77 74 72 73 72 73 80 78 71 73 72 63 56 61 55 51 52 64 67 60 56 48 52 53 45 43 40 36
75 79 77 71 64 57 55 59 59 58 63 63 63 64 66 64 68 67 66 67 70 73 83 83 81 71 69 62 59 48 45 48 57 63 58 58 50 55 51 49 47 44 38
61 66 65 65 61 58 57 59 58 58 57 59 59 60 64 61 64 63 64 67 68 68 76 71 72 70 65 61 51 45 43 46 53 56 55 57 59 56 52 53 49 45 39
54 58 56 59 58 57 55 55 54 55 59 59 59 61 58 60 63 65 67 69 65 58 61 57 62 58 56 54 47 44 44 43 50 55 59 59 63 58 54 54 48 48 41
52 55 56 57 58 56 55 56 58 59 58 56 56 61 60 59 64 65 56 49 51 53 52 48 49 55 54 50 46 47 46 48 54 57 59 56 56 56 55 57 47 43 40
51 53 54 56 57 60 61 62 61 58 56 56 64 58 62 60 53 50 50 52 47 44 48 49 52 54 52 50 49 44 47 49 53 54 57 56 59 56 59 51 40 34 38
44 47 50 53 55 57 60 59 58 55 47 58 63 59 50 46 50 47 43 46 45 44 47 48 48 48 45 42 42 43 48 52 52 54 58 56 56 57 54 43 33 33 38
43 46 49 51 54 54 53 50 51 52 52 50 43 45 52 53 52 51 48 47 49 47 46 41 40 38 37 28 31 37 44 49 49 43 33 55 57 57 50 36 30 30 34
41 40 40 40 43 45 47 44 41 41 43 45 50 50 50 47 43 43 44 44 41 39 39 36 28 25 27 26 28 26 32 38 41 43 44 40 48 50 43 32 29 32 34
37 35 33 31 29 28 30 32 35 37 41 44 45 41 37 35 36 30 25 26 29 28 26 25 25 21 23 24 22 22 28 32 36 42 46 44 43 36 34 33 32 33 35
33 30 28 28 28 29 27 24 23 23 24 23 20 20 22 27 24 21 20 22 18 18 18 17 16 17 10 12 13 15 21 27 35 38 39 46 54 42 33 38 34 33 40
Wind_Direction_500mb
220 218 214 213 214 217 225 238 249 256 258 268 276 292 309 326 340 309 265 252 265 280 299 317 327 326 327 333 336 341 349 342 354 332 42 43 41 27 22 29 34 37 35
221 221 221 222 222 223 228 239 244 247 252 258 258 269 276 295 300 313 324 301 267 274 288 300 308 306 310 314 318 328 322 312 305 296 337 350 354 357 6 30 24 34 33
225 226 227 231 231 228 231 238 244 246 250 255 255 263 272 269 273 286 301 309 301 278 285 292 293 298 295 297 306 314 306 297 296 299 303 313 326 347 17 5 27 29 27
228 229 230 232 233 232 233 236 241 246 249 249 251 256 269 269 271 278 292 302 309 320 301 296 295 295 296 295 300 308 299 287 281 294 294 302 314 315 6 0 17 22 22
233 234 235 236 237 237 238 240 242 244 246 248 253 259 270 268 273 270 279 290 293 295 309 316 302 293 295 296 296 297 295 288 289 289 291 283 278 288 288 321 355 17 8
238 236 238 238 239 240 242 242 243 248 250 248 259 263 267 268 270 271 275 276 289 289 288 298 307 301 289 286 284 285 288 285 286 287 285 274 272 271 279 287 310 334 350
240 238 240 241 241 242 244 246 247 249 252 254 258 264 269 274 275 274 273 273 276 277 276 280 288 290 292 290 285 281 276 277 284 287 276 259 253 265 262 283 297 294 307
245 245 243 243 245 245 245 246 246 249 251 254 253 257 270 278 276 275 273 272 271 269 271 276 279 287 283 278 274 273 268 264 254 268 265 263 266 257 264 274 285 295 300
245 245 246 245 245 246 247 248 249 250 253 254 254 246 255 250 253 281 280 279 277 276 280 280 281 282 283 283 282 280 273 262 248 244 242 255 264 259 261 270 284 288 294
247 247 247 247 247 247 247 248 249 251 252 251 255 253 253 255 263 281 280 274 276 289 290 286 282 281 282 281 281 280 269 256 247 236 238 252 257 253 260 264 280 287 284
249 248 248 248 248 249 249 249 249 248 250 253 254 259 261 258 262 262 273 272 278 283 284 282 285 286 283 282 281 276 269 255 247 244 244 257 253 249 252 263 272 277 274
252 250 250 247 248 249 250 250 250 252 253 256 257 260 254 254 259 263 262 270 273 284 285 285 285 286 289 287 282 275 270 262 265 260 242 236 250 252 250 257 264 272 272
258 255 252 250 248 249 250 252 253 254 255 257 260 261 263 266 268 260 262 267 271 281 280 285 286 286 288 285 284 282 273 267 258 247 235 236 236 246 245 252 259 267 275
263 264 262 258 256 255 254 256 257 258 259 260 260 263 265 267 269 267 264 269 270 273 277 282 287 292 289 294 289 284 275 268 260 249 246 238 230 243 244 245 252 260 271
262 264 264 263 260 256 255 256 258 261 262 262 264 265 265 268 268 270 272 273 273 268 270 278 281 291 295 297 284 283 280 267 264 248 240 236 223 242 243 245 251 257 265
257 260 264 264 263 261 258 256 257 259 260 261 262 263 265 268 270 269 269 271 273 274 268 276 281 285 289 289 291 291 280 273 261 250 239 234 229 244 242 245 251 258 263
254 255 257 260 262 261 260 257 257 258 258 259 262 266 268 270 269 271 272 272 273 275 274 276 285 289 289 291 290 286 273 263 250 247 234 224 224 238 237 243 248 256 261
256 258 259 258 255 254 255 256 257 259 259 262 264 266 269 269 269 270 270 272 273 277 275 278 284 285 283 289 281 275 269 257 247 245 235 222 227 235 240 242 250 259 259
250 253 253 254 251 250 250 252 254 256 257 260 263 265 267 272 269 270 269 274 275 271 274 273 274 276 281 280 275 270 263 258 247 238 227 227 233 236 242 245 254 262 262
243 243 242 242 244 246 247 248 250 252 256 257 262 258 264 276 270 270 272 273 269 273 270 267 273 273 272 268 265 259 254 251 240 232 230 232 236 239 245 249 258 270 277
243 244 243 243 244 246 248 248 250 253 255 257 261 262 263 266 271 272 267 273 265 264 267 268 267 267 263 263 267 263 256 252 244 233 234 237 237 242 241 251 258 272 283
248 246 244 244 247 248 249 250 250 246 251 251 257 254 267 264 267 270 258 264 263 263 264 263 261 262 264 269 267 264 253 245 237 235 234 236 240 241 241 245 256 268 281
250 248 247 247 245 246 243 245 249 253 253 253 250 253 258 261 261 262 262 261 259 252 253 252 255 265 265 262 263 261 255 249 244 238 240 244 242 242 236 244 254 273 285
245 241 239 238 238 240 244 246 246 246 244 245 247 251 256 256 256 258 260 258 254 252 253 257 265 260 252 250 254 250 257 250 243 240 245 247 245 241 240 242 257 282 292
241 238 234 231 228 228 231 238 241 243 244 245 249 249 252 258 260 263 266 259 253 255 256 259 261 260 263 259 245 232 231 232 240 254 252 246 243 241 244 256 269 287 295
229 223 222 224 227 227 228 228 229 233 233 234 236 245 257 261 259 256 258 256 251 246 241 244 252 258 252 240 239 225 237 260 270 266 262 248 251 244 264 263 268 288 300
Wind_Speed_850mb
28 27 26 26 24 21 20 18 15 14 13 10 10 10 10 14 12 13 11 11 17 20 20 20 21 21 19 18 16 13 11 8 8 6 4 10 11 12 15 16 17 19 22
32 31 30 28 27 25 23 22 22 19 17 16 15 14 14 14 14 17 23 15 19 22 23 22 22 21 21 20 17 16 16 10 11 7 4 5 8 14 14 12 13 18 21
35 34 33 31 30 29 28 27 25 24 21 22 21 20 20 20 20 20 20 29 27 24 25 25 23 22 22 22 22 18 18 14 8 11 12 12 11 12 10 9 15 18 18
38 37 37 36 36 35 34 32 29 27 27 24 23 23 26 26 27 27 25 26 30 34 28 26 26 26 25 25 27 24 20 20 18 19 17 16 12 7 5 10 11 14 15
43 41 41 42 40 41 38 35 34 33 28 26 27 30 32 33 32 34 33 29 29 32 33 30 29 30 28 28 29 29 27 27 26 24 21 16 12 8 6 7 7 10 12
47 49 48 46 45 44 43 43 40 38 36 29 36 37 38 40 40 42 40 39 34 30 31 28 25 25 27 30 31 32 33 32 32 27 22 20 15 12 11 11 7 6 7
53 56 56 51 49 50 48 47 43 43 43 42 41 43 43 44 46 49 48 46 40 35 33 30 31 33 32 31 34 35 34 34 38 32 25 20 19 16 14 18 14 10 9
58 58 59 56 56 56 55 52 50 49 50 50 46 41 38 43 50 49 44 43 39 40 42 40 40 39 41 41 40 38 36 34 32 32 27 27 25 22 22 20 17 15 13
68 64 59 61 61 61 61 58 57 57 57 56 54 44 21 19 17 28 27 33 37 40 43 46 44 48 54 52 47 46 44 41 36 35 30 30 30 28 28 26 23 21 18
75 71 68 66 65 66 66 64 63 64 63 63 59 63 62 58 32 34 39 35 43 52 56 56 51 54 60 63 57 56 50 45 42 41 36 34 33 32 32 28 24 25 24
80 81 79 76 74 71 70 70 70 71 73 72 74 65 65 68 68 73 63 50 59 62 61 64 64 68 74 73 68 63 66 58 53 54 49 46 41 34 32 34 30 30 28
81 82 83 86 81 77 75 76 75 75 76 77 76 76 71 61 61 68 75 80 80 80 75 75 77 78 83 83 81 76 75 77 79 67 57 55 54 44 44 39 36 33 33
80 76 78 83 85 83 82 82 81 80 79 80 79 81 84 84 81 70 70 77 80 88 88 83 79 80 80 89 86 82 81 89 80 62 58 62 49 49 49 43 41 38 31
83 75 72 72 76 79 81 83 84 84 83 82 84 85 85 86 85 83 81 79 74 75 86 93 85 74 77 73 83 75 78 84 83 66 66 58 47 55 51 45 43 39 31
89 84 78 70 66 71 75 77 81 80 81 83 84 84 87 87 86 85 85 83 83 69 68 67 61 67 69 62 65 66 68 73 74 65 61 55 49 54 52 46 44 40 34
87 85 81 74 64 59 62 66 68 68 70 72 73 76 78 77 74 72 73 72 73 80 78 71 73 72 63 56 61 55 51 52 64 67 60 56 48 52 53 45 43 40 36
75 79 77 71 64 57 55 59 59 58 63 63 63 64 66 64 68 67 66 67 70 73 83 83 81 71 69 62 59 48 45 48 57 63 58 58 50 55 51 49 47 44 38
61 66 65 65 61 58 57 59 58 58 57 59 59 60 64 61 64 63 64 67 68 68 76 71 72 70 65 61 51 45 43 46 53 56 55 57 59 56 52 53 49 45 39
54 58 56 59 58 57 55 55 54 55 59 59 59 61 58 60 63 65 67 69 65 58 61 57 62 58 56 54 47 44 44 43 50 55 59 59 63 58 54 54 48 48 41
52 55 56 57 58 56 55 56 58 59 58 56 56 61 60 59 64 65 56 49 51 53 52 48 49 55 54 50 46 47 46 48 54 57 59 56 56 56 55 57 47 43 40
51 53 54 56 57 60 61 62 61 58 56 56 64 58 62 60 53 50 50 52 47 44 48 49 52 54 52 50 49 44 47 49 53 54 57 56 59 56 59 51 40 34 38
44 47 50 53 55 57 60 59 58 55 47 58 63 59 50 46 50 47 43 46 45 44 47 48 48 48 45 42 42 43 48 52 52 54 58 56 56 57 54 43 33 33 38
43 46 49 51 54 54 53 50 51 52 52 50 43 45 52 53 52 51 48 47 49 47 46 41 40 38 37 28 31 37 44 49 49 43 33 55 57 57 50 36 30 30 34
41 40 40 40 43 45 47 44 41 41 43 45 50 50 50 47 43 43 44 44 41 39 39 36 28 25 27 26 28 26 32 38 41 43 44 40 48 50 43 32 29 32 34
37 35 33 31 29 28 30 32 35 37 41 44 45 41 37 35 36 30 25 26 29 28 26 25 25 21 23 24 22 22 28 32 36 42 46 44 43 36 34 33 32 33 35
33 30 28 28 28 29 27 24 23 23 24 23 20 20 22 27 24 21 20 22 18 18 18 17 16 17 10 12 13 15 21 27 35 38 39 46 54 42 33 38 34 33 40
Wind_Direction_850mb
220 218 214 213 214 217 225 238 249 256 258 268 276 292 309 326 340 309 265 252 265 280 299 317 327 326 327 333 336 341 349 342 354 332 42 43 41 27 22 29 34 37 35
221 221 221 222 222 223 228 239 244 247 252 258 258 269 276 295 300 313 324 301 267 274 288 300 308 306 310 314 318 328 322 312 305 296 337 350 354 357 6 30 24 34 33
225 226 227 231 231 228 231 238 244 246 250 255 255 263 272 269 273 286 301 309 301 278 285 292 293 298 295 297 306 314 306 297 296 299 303 313 326 347 17 5 27 29 27
228 229 230 232 233 232 233 236 241 246 249 249 251 256 269 269 271 278 292 302 309 320 301 296 295 295 296 295 300 308 299 287 281 294 294 302 314 315 6 0 17 22 22
233 234 235 236 237 237 238 240 242 244 246 248 253 259 270 268 273 270 279 290 293 295 309 316 302 293 295 296 296 297 295 288 289 289 291 283 278 288 288 321 355 17 8
238 236 238 238 239 240 242 242 243 248 250 248 259 263 267 268 270 271 275 276 289 289 288 298 307 301 289 286 284 285 288 285 286 287 285 274 272 271 279 287 310 334 350
240 238 240 241 241 242 244 246 247 249 252 254 258 264 269 274 275 274 273 273 276 277 276 280 288 290 292 290 285 281 276 277 284 287 276 259 253 265 262 283 297 294 307
245 245 243 243 245 245 245 246 246 249 251 254 253 257 270 278 276 275 273 272 271 269 271 276 279 287 283 278 274 273 268 264 254 268 265 263 266 257 264 274 285 295 300
245 245 246 245 245 246 247 248 249 250 253 254 254 246 255 250 253 281 280 279 277 276 280 280 281 282 283 283 282 280 273 262 248 244 242 255 264 259 261 270 284 288 294
247 247 247 247 247 247 247 248 249 251 252 251 255 253 253 255 263 281 280 274 276 289 290 286 282 281 282 281 281 280 269 256 247 236 238 252 257 253 260 264 280 287 284
249 248 248 248 248 249 249 249 249 248 250 253 254 259 261 258 262 262 273 272 278 283 284 282 285 286 283 282 281 276 269 255 247 244 244 257 253 249 252 263 272 277 274
252 250 250 247 248 249 250 250 250 252 253 256 257 260 254 254 259 263 262 270 273 284 285 285 285 286 289 287 282 275 270 262 265 260 242 236 250 252 250 257 264 272 272
258 255 252 250 248 249 250 252 253 254 255 257 260 261 263 266 268 260 262 267 271 281 280 285 286 286 288 285 284 282 273 267 258 247 235 236 236 246 245 252 259 267 275
263 264 262 258 256 255 254 256 257 258 259 260 260 263 265 267 269 267 264 269 270 273 277 282 287 292 289 294 289 284 275 268 260 249 246 238 230 243 244 245 252 260 271
262 264 264 263 260 256 255 256 258 261 262 262 264 265 265 268 268 270 272 273 273 268 270 278 281 291 295 297 284 283 280 267 264 248 240 236 223 242 243 245 251 257 265
257 260 264 264 263 261 258 256 257 259 260 261 262 263 265 268 270 269 269 271 273 274 268 276 281 285 289 289 291 291 280 273 261 250 239 234 229 244 242 245 251 258 263
254 255 257 260 262 261 260 257 257 258 258 259 262 266 268 270 269 271 272 272 273 275 274 276 285 289 289 291 290 286 273 263 250 247 234 224 224 238 237 243 248 256 261
256 258 259 258 255 254 255 256 257 259 259 262 264 266 269 269 269 270 270 272 273 277 275 278 284 285 283 289 281 275 269 257 247 245 235 222 227 235 240 242 250 259 259
250 253 253 254 251 250 250 252 254 256 257 260 263 265 267 272 269 270 269 274 275 271 274 273 274 276 281 280 275 270 263 258 247 238 227 227 233 236 242 245 254 262 262
243 243 242 242 244 246 247 248 250 252 256 257 262 258 264 276 270 270 272 273 269 273 270 267 273 273 272 268 265 259 254 251 240 232 230 232 236 239 245 249 258 270 277
243 244 243 243 244 246 248 248 250 253 255 257 261 262 263 266 271 272 267 273 265 264 267 268 267 267 263 263 267 263 256 252 244 233 234 237 237 242 241 251 258 272 283
248 246 244 244 247 248 249 250 250 246 251 251 257 254 267 264 267 270 258 264 263 263 264 263 261 262 264 269 267 264 253 245 237 235 234 236 240 241 241 245 256 268 281
250 248 247 247 245 246 243 245 249 253 253 253 250 253 258 261 261 262 262 261 259 252 253 252 255 265 265 262 263 261 255 249 244 238 240 244 242 242 236 244 254 273 285
245 241 239 238 238 240 244 246 246 246 244 245 247 251 256 256 256 258 260 258 254 252 253 257 265 260 252 250 254 250 257 250 243 240 245 247 245 241 240 242 257 282 292
241 238 234 231 228 228 231 238 241 243 244 245 249 249 252 258 260 263 266 259 253 255 256 259 261 260 263 259 245 232 231 232 240 254 252 246 243 241 244 256 269 287 295
229 223 222 224 227 227 228 228 229 233 233 234 236 245 257 261 259 256 258 256 251 246 241 244 252 258 252 240 239 225 237 260 270 266 262 248 251 244 264 263 268 288 300